{"data":{"norad_id":55009,"epoch":"2026-05-25T03:17:47.937696Z","epoch_age_seconds":62864,"freshness":"FRESH","line1":"1 55009U 23001A   26145.13736039  .00013404  00000+0  31728-3 0  9990","line2":"2 55009  97.3184 209.5185 0005887 180.2464 179.8781 15.41891842188670","mean_motion":15.41891842,"eccentricity":0.0005887,"inclination_deg":97.3184,"raan_deg":209.5185,"arg_perigee_deg":180.2464,"mean_anomaly_deg":179.8781,"bstar":0.00031728,"rev_number":18867,"period_min":93.391764634552,"perigee_km":436.5119703375,"apogee_km":444.54026429183,"semimajor_km":6818.6631173147,"source":"CELESTRAK","updated_at":"2026-05-25T13:37:58.808585Z"}}